Flag for Switzerland Weather past 2 weeks in Horw, Lucerne, Switzerland

Now
59 °F

Cool.


Feels Like: 58 °F
Forecast: 48 / 71 °F
Wind: 5 mph from East

Location: Giswil

Current Time: Jul 30, 2015 at 1:03:08 AM

Latest Report: Jul 29, 2015 at 11:00 PM


Visibility: N/A

Pressure: 30.01 "Hg

Humidity: 87%

Dew point: 55 °F

Location of HorwLocation

Historic Weather in Horw — Graph

°F

Horw temperature yesterday

Maximum temperature yesterday: 67 °F (at 3:00 PM)
Minimum temperature yesterday: 58 °F (at 6:00 AM)
Average temperature yesterday: 61 °F

Past Weeks' High & Low Weather Summary

 TemperatureHumidityPressure
High92 °F (Jul 22, 4:00 PM)100% (Jul 23, 1:00 AM)30.16 "Hg (Jul 23, 1:00 AM)
Low55 °F (Jul 26, 5:00 AM)36% (Jul 16, 6:00 PM)29.70 "Hg (Jul 24, 4:00 PM)
Average70 °F73%29.95 "Hg
* Reported Jul 14 11:00 PM — Jul 29 11:00 PM, Horw, Weather by CustomWeather, © 2015

Note: Actual official high and low records may vary slightly from our data, if they occured in-between our weather recording intervals... More about our weather records

Advertising

Horw weather history for previous 24 hours

 ConditionsComfort  
Time TempWeatherWind HumidityBarometerVisibility
11:00 PM
Wed, Jul 29
59 °FCool.5 mph87%30.01 "HgN/A
10:00 PM58 °FCool.5 mph91%30.00 "HgN/A
9:00 PM60 °FCool.7 mph94%29.96 "HgN/A
8:00 PM62 °FCool.6 mph94%29.93 "HgN/A
7:00 PM62 °FCool.7 mph93%29.91 "HgN/A
6:00 PM65 °FMild.9 mph83%29.87 "HgN/A
5:00 PM66 °FMild.6 mph81%29.85 "HgN/A
4:00 PM65 °FMild.3 mph85%29.85 "HgN/A
3:00 PM67 °FMild.5 mph76%29.83 "HgN/A
2:00 PM65 °FMild.2 mph74%29.84 "HgN/A
1:00 PM63 °FMild.3 mph81%29.85 "HgN/A
12:00 PM63 °FMild.1 mph81%29.86 "HgN/A
11:00 AM62 °FMild.1 mph82%29.84 "HgN/A
10:00 AM61 °FCool.No wind83%29.85 "HgN/A
9:00 AM60 °FCool.No wind87%29.86 "HgN/A
8:00 AM59 °FCool.1 mph89%29.87 "HgN/A
7:00 AM58 °FCool.No wind96%29.89 "HgN/A
6:00 AM58 °FCool.1 mph94%29.91 "HgN/A
4:00 AM59 °FCool.1 mph94%29.93 "HgN/A
3:00 AM59 °FCool.3 mph91%29.93 "HgN/A
2:00 AM58 °FCool.1 mph95%29.91 "HgN/A
1:00 AM59 °FCool.1 mph91%29.96 "HgN/A
Weather by CustomWeather, © 2015

See weather overviewHow to use our weather pages